[Iaude] MPEC M111: 2024 MF1 [a=1.36,e=0.40,i=14.0,H=21.5]
    mpec at cfa.harvard.edu 
    mpec at cfa.harvard.edu
       
    Fri Jun 28 19:58:24 EDT 2024
    
    
  
M.P.E.C. 2024-M111                                Issued 2024 June 28, 23:56 UT
     The Minor Planet Electronic Circulars contain information on unusual
         minor planets, routine data on comets and natural satellites,
         and occasional editorial announcements.  They are published
    on behalf of Division F of the International Astronomical Union by the
          Minor Planet Center, Smithsonian Astrophysical Observatory,
                          Cambridge, MA 02138, U.S.A.
			  
             Prepared using the Tamkin Foundation Computer Network
                              MPC at CFA.HARVARD.EDU
            URL https://www.minorplanetcenter.net/    ISSN 1523-6714
                                    2024 MF1                                    
Observations:
     K24M01F  C2024 06 11.56243818 45 59.761+25 09 29.62         21.79GVEM111F51
     K24M01F  C2024 06 11.57535618 45 59.317+25 09 57.26         21.65GVEM111F51
     K24M01F  C2024 06 11.58833518 45 58.847+25 10 25.46         22.02GVEM111F51
     K24M01F  C2024 06 11.60132318 45 58.404+25 10 52.98         22.23GVEM111F51
     K24M01F* C2024 06 27.46331918 31 37.092+35 23 43.61         21.18wXEM111F52
     K24M01F  C2024 06 27.47591218 31 35.842+35 24 14.64         21.04wXEM111F52
     K24M01F  C2024 06 27.50104418 31 33.350+35 25 16.13         21.00wXEM111F52
     K24M01F KC2024 06 27.91888218 30 58.09 +35 42 16.1          21.2 GVEM111L01
     K24M01F pC2024 06 27.92056418 30 57.92 +35 42 19.9          21.4 GVEM111L01
     K24M01F KC2024 06 27.92224718 30 57.73 +35 42 25.7          20.9 GVEM111L01
     K24M01F KC2024 06 27.92519318 30 57.51 +35 42 33.2          20.7 GVEM111L01
     K24M01F KC2024 06 27.99240 18 30 50.90 +35 45 20.0          20.2 GVEM111104
     K24M01F KB2024 06 28.04194 18 30 46.13 +35 47 20.8          20.7 GVEM111204
     K24M01F KB2024 06 28.06676 18 30 43.68 +35 48 21.8                VEM111204
     K24M01F KB2024 06 28.93667 18 29 25.34 +36 24 27.3          20.9 RZEM111106
     K24M01F KB2024 06 28.94368 18 29 24.64 +36 24 45.0          20.2 RZEM111106
     K24M01F KB2024 06 28.95044 18 29 23.92 +36 25 00.7          20.1 RZEM111106
     K24M01F KB2024 06 28.95677 18 29 23.27 +36 25 17.5          20.6 RZEM111106
Observer details:
104 San Marcello Pistoiese.  Observers P. Bacci, M. Maestripieri.  Measurer P.
    Bacci.  0.60-m f/4 reflector + CCD.
106 Crni Vrh.  Observer H. Mikuz.  0.60-m f/3.3 reflector + CMO.
204 Schiaparelli Observatory.  Observer L. Buzzi.  0.84-m f/3.5 reflector +
    CMO.
F51 Pan-STARRS 1, Haleakala.  Observers J. Herman, T. Lowe, P. Minguez, A.
    Schultz, I. Smith.  Measurers K. Chambers, T. de Boer, J. Fairlamb, H.
    Gao, M. Huber, C.-C. Lin, E. Magnier, Y. Ramanjooloo, R. Wainscoat, R.
    Weryk.  1.8-m Ritchey-Chretien + CCD.
F52 Pan-STARRS 2, Haleakala.  Observers J. Herman, T. Lowe, P. Minguez, A.
    Schultz, I. Smith.  Measurers K. Chambers, T. de Boer, J. Fairlamb, H.
    Gao, M. Huber, C.-C. Lin, E. Magnier, Y. Ramanjooloo, R. Wainscoat, R.
    Weryk.  1.8-m Ritchey-Chretien + CCD.
L01 Visnjan Observatory, Tican.  Observer K. Korlevic.  1.0-m f/2.9 reflector
    + CCD.
Orbital elements:
2024 MF1                                                 Earth MOID = 0.1272 AU
Epoch 2024 Mar. 31.0 TT = JDT 2460400.5                 MPC                     
M 252.61777              (2000.0)            P               Q                  
n   0.62295192     Peri.  211.20782     +0.96322867     -0.25969519             
a   1.3577913      Node   163.41608     +0.26792292     +0.94765198             
e   0.4000456      Incl.   13.97173     -0.02019505     +0.18577977             
P   1.58           H   21.57          G   0.15           U   8                  
Residuals in seconds of arc
240611 F51  0.0   0.1+    240627 F52  0.0   0.3+    240628 204  0.3+  0.3-
240611 F51  0.1+  0.1-    240627 L01  0.3-  0.9-    240628 204  0.1+  0.1+
240611 F51  0.1-  0.2+    240627 L01 (0.3-  1.2-)   240628 106  0.1-  0.3+
240611 F51  0.0   0.2-    240627 L01  0.6-  0.4+    240628 106  0.3+  0.4+
240627 F52  0.0   0.2-    240627 L01  0.2+  0.5+    240628 106  0.1+  0.8-
240627 F52  0.1+  0.0     240627 104  0.4-  0.0     240628 106  0.2+  0.2+
Ephemeris:
2024 MF1                 a,e,i = 1.36, 0.40, 14                  q = 0.8146
Date    TT    R. A. (2000) Decl.     Delta      r    Elong.  Phase     V
2024 05 29    18 47 48.7 +17 24 25   0.5184  1.3910   127.5    35.3    22.3
...
2024 06 13    18 45 18.4 +26 01 58   0.4063  1.3018   127.1    38.5    21.7
...
2024 06 21    18 39 21.8 +31 04 52   0.3545  1.2522   124.6    41.9    21.4
...
2024 06 27    18 32 16.9 +35 04 35   0.3188  1.2142   121.6    45.5    21.2
2024 06 28    18 30 50.5 +35 45 41   0.3130  1.2078   121.0    46.2    21.2
2024 06 29    18 29 19.2 +36 27 08   0.3074  1.2014   120.3    46.9    21.2
...
2024 07 05    18 18 14.5 +40 44 00   0.2745  1.1629   115.8    51.9    21.0
...
2024 07 13    17 56 32.5 +46 55 48   0.2334  1.1114   108.1    60.4    20.8
...
2024 07 28    16 19 26.6 +61 04 25   0.1649  1.0166    85.7    84.9    20.7
A. U. Tomatic                (C) Copyright 2024 MPC           M.P.E.C. 2024-M111
    
    
More information about the Iaude
mailing list